• In Österreich
  • Länderverzeichnis
  • Für 7 Tage
  • Wassertemperatur
  • Satellitenkarten
  • Wetterkarte
  • News
  • Widgets
  • user-avatar
    Anmelden

    Stündliche Wetter Saurimo

    Heute, 15 November, Donnerstag

    Zeit Temperatur Niederschläge Wind Luftdruck Luftfeuchtigkeit
    00:00 +21°C° 0 mm 1 m/S 669 mmHg 87%
    01:00 +19°C° 0 mm 2 m/S 669 mmHg 88%
    02:00 +19°C° 0 mm 2 m/S 669 mmHg 90%
    03:00 +18°C° 0 mm 2 m/S 669 mmHg 92%
    04:00 +18°C° 0 mm 2 m/S 669 mmHg 94%
    05:00 +19°C° 0 mm 2 m/S 669 mmHg 87%
    06:00 +21°C° 0 mm 2 m/S 670 mmHg 81%
    07:00 +23°C° 0 mm 2 m/S 670 mmHg 74%
    08:00 +27°C° 0 mm 2 m/S 671 mmHg 59%
    09:00 +30°C° 0 mm 2 m/S 671 mmHg 44%
    10:00 +34°C° 0 mm 2 m/S 672 mmHg 29%
    11:00 +35°C° 0 mm 2 m/S 671 mmHg 25%
    12:00 +37°C° 0 mm 2 m/S 671 mmHg 21%
    13:00 +38°C° 0 mm 2 m/S 670 mmHg 17%
    14:00 +37°C° 0 mm 2 m/S 670 mmHg 19%
    15:00 +35°C° 0 mm 1 m/S 669 mmHg 20%
    16:00 +35°C° 0 mm 1 m/S 669 mmHg 21%
    17:00 +32°C° 0 mm 1 m/S 669 mmHg 26%
    18:00 +29°C° 0 mm 1 m/S 668 mmHg 31%
    19:00 +26°C° 0 mm 1 m/S 668 mmHg 35%
    20:00 +25°C° 0 mm 1 m/S 669 mmHg 39%
    21:00 +24°C° 0 mm 1 m/S 669 mmHg 43%
    22:00 +23°C° 0 mm 1 m/S 669 mmHg 47%
    23:00 +23°C° 0 mm 1 m/S 669 mmHg 52%

    Morgen, 16 November, Freitag

    Zeit Temperatur Niederschläge Wind Luftdruck Luftfeuchtigkeit
    00:00 +22°C° 0 mm 1 m/S 669 mmHg 57%
    01:00 +20°C° 0 mm 2 m/S 668 mmHg 62%
    02:00 +20°C° 0 mm 2 m/S 668 mmHg 65%
    03:00 +19°C° 0 mm 2 m/S 668 mmHg 68%
    04:00 +20°C° 0 mm 1 m/S 668 mmHg 71%
    05:00 +20°C° 0 mm 2 m/S 669 mmHg 71%
    06:00 +21°C° 0 mm 2 m/S 670 mmHg 70%
    07:00 +22°C° 0 mm 3 m/S 671 mmHg 69%
    08:00 +25°C° 0 mm 3 m/S 672 mmHg 65%
    09:00 +27°C° 0 mm 3 m/S 672 mmHg 61%
    10:00 +28°C° 0 mm 3 m/S 673 mmHg 57%
    11:00 +29°C° 0 mm 3 m/S 672 mmHg 55%
    12:00 +29°C° 0 mm 2 m/S 671 mmHg 53%
    13:00 +30°C° 0 mm 2 m/S 671 mmHg 51%
    14:00 +29°C° 0.3 mm 2 m/S 670 mmHg 55%
    15:00 +29°C° 0.3 mm 2 m/S 670 mmHg 59%
    16:00 +28°C° 0.3 mm 2 m/S 670 mmHg 63%
    17:00 +26°C° 0.1 mm 2 m/S 670 mmHg 71%
    18:00 +25°C° 0.1 mm 2 m/S 670 mmHg 79%
    19:00 +23°C° 0.1 mm 2 m/S 670 mmHg 87%
    20:00 +21°C° 0 mm 2 m/S 671 mmHg 90%
    21:00 +21°C° 0 mm 2 m/S 671 mmHg 93%
    22:00 +21°C° 0 mm 1 m/S 671 mmHg 97%
    23:00 +21°C° 0 mm 1 m/S 671 mmHg 97%

    übermorgen, 17 November, Samstag

    Zeit Temperatur Niederschläge Wind Luftdruck Luftfeuchtigkeit
    00:00 +21°C° 0 mm 1 m/S 671 mmHg 98%
    01:00 +20°C° 0 mm 1 m/S 670 mmHg 98%
    02:00 +20°C° 0 mm 1 m/S 670 mmHg 98%
    03:00 +20°C° 0 mm 1 m/S 670 mmHg 98%
    04:00 +19°C° 0 mm 1 m/S 670 mmHg 98%
    05:00 +21°C° 0 mm 1 m/S 671 mmHg 92%
    06:00 +22°C° 0 mm 1 m/S 671 mmHg 87%
    07:00 +24°C° 0 mm 1 m/S 672 mmHg 81%
    08:00 +26°C° 0 mm 1 m/S 672 mmHg 68%
    09:00 +29°C° 0 mm 2 m/S 673 mmHg 55%
    10:00 +32°C° 0 mm 2 m/S 673 mmHg 41%
    11:00 +32°C° 0 mm 2 m/S 672 mmHg 41%
    12:00 +32°C° 0 mm 1 m/S 672 mmHg 41%
    13:00 +32°C° 0 mm 1 m/S 671 mmHg 40%
    14:00 +31°C° 0 mm 1 m/S 670 mmHg 42%
    15:00 +31°C° 0 mm 1 m/S 670 mmHg 44%
    16:00 +31°C° 0 mm 1 m/S 670 mmHg 45%
    17:00 +29°C° 0.1 mm 1 m/S 670 mmHg 51%
    18:00 +27°C° 0.1 mm 1 m/S 670 mmHg 57%
    19:00 +25°C° 0.1 mm 1 m/S 670 mmHg 63%
    20:00 +24°C° 0 mm 1 m/S 670 mmHg 67%
    21:00 +23°C° 0 mm 1 m/S 670 mmHg 72%
    22:00 +22°C° 0 mm 1 m/S 670 mmHg 76%
    23:00 +22°C° 0.1 mm 1 m/S 670 mmHg 80%

    18 November, Sonntag

    Zeit Temperatur Niederschläge Wind Luftdruck Luftfeuchtigkeit
    00:00 +21°C° 0.1 mm 1 m/S 670 mmHg 83%
    01:00 +20°C° 0.1 mm 1 m/S 669 mmHg 87%
    02:00 +20°C° 0.5 mm 1 m/S 669 mmHg 89%
    03:00 +20°C° 0.5 mm 1 m/S 669 mmHg 92%
    04:00 +19°C° 0.5 mm 1 m/S 669 mmHg 95%
    05:00 +18°C° 0.2 mm 0 m/S 670 mmHg 91%
    06:00 +20°C° 0.2 mm 0 m/S 671 mmHg 87%
    07:00 +21°C° 0.2 mm 0 m/S 672 mmHg 83%
    08:00 +26°C° 0 mm 1 m/S 672 mmHg 70%
    09:00 +30°C° 0 mm 1 m/S 673 mmHg 56%
    10:00 +33°C° 0 mm 1 m/S 673 mmHg 43%
    11:00 +33°C° 0 mm 1 m/S 672 mmHg 42%
    12:00 +32°C° 0 mm 1 m/S 671 mmHg 41%
    13:00 +32°C° 0 mm 1 m/S 670 mmHg 40%
    14:00 +32°C° 0 mm 1 m/S 669 mmHg 41%
    15:00 +32°C° 0 mm 1 m/S 669 mmHg 43%
    16:00 +31°C° 0 mm 1 m/S 669 mmHg 44%
    17:00 +29°C° 0 mm 1 m/S 669 mmHg 49%
    18:00 +27°C° 0 mm 1 m/S 669 mmHg 55%
    19:00 +26°C° 0 mm 1 m/S 669 mmHg 60%
    20:00 +25°C° 0.1 mm 1 m/S 670 mmHg 63%
    21:00 +24°C° 0.1 mm 1 m/S 670 mmHg 67%
    22:00 +23°C° 0.1 mm 1 m/S 670 mmHg 70%
    23:00 +22°C° 0.2 mm 1 m/S 669 mmHg 75%

    19 November, Montag

    Zeit Temperatur Niederschläge Wind Luftdruck Luftfeuchtigkeit
    00:00 +22°C° 0.2 mm 1 m/S 669 mmHg 80%
    01:00 +21°C° 0.2 mm 1 m/S 668 mmHg 85%
    02:00 +20°C° 0.6 mm 1 m/S 668 mmHg 88%
    03:00 +20°C° 0.6 mm 1 m/S 668 mmHg 92%
    04:00 +20°C° 0.6 mm 1 m/S 668 mmHg 95%
    05:00 +21°C° 0.2 mm 1 m/S 669 mmHg 92%
    06:00 +22°C° 0.2 mm 1 m/S 670 mmHg 89%
    07:00 +23°C° 0.2 mm 1 m/S 671 mmHg 86%
    08:00 +25°C° 0.8 mm 1 m/S 671 mmHg 78%
    09:00 +27°C° 0.8 mm 1 m/S 672 mmHg 71%
    10:00 +29°C° 0.8 mm 1 m/S 672 mmHg 63%
    11:00 +31°C° 0.4 mm 1 m/S 671 mmHg 54%
    12:00 +33°C° 0.4 mm 1 m/S 671 mmHg 46%
    13:00 +36°C° 0.4 mm 1 m/S 670 mmHg 37%
    14:00 +34°C° 0 mm 1 m/S 670 mmHg 40%
    15:00 +33°C° 0 mm 1 m/S 669 mmHg 43%
    16:00 +31°C° 0 mm 1 m/S 668 mmHg 47%
    17:00 +29°C° 0.1 mm 1 m/S 669 mmHg 53%
    18:00 +27°C° 0.1 mm 1 m/S 669 mmHg 60%
    19:00 +25°C° 0.1 mm 1 m/S 669 mmHg 66%
    20:00 +24°C° 0.6 mm 1 m/S 669 mmHg 74%
    21:00 +23°C° 0.6 mm 1 m/S 669 mmHg 81%
    22:00 +22°C° 0.6 mm 1 m/S 669 mmHg 89%
    23:00 +22°C° 0.8 mm 1 m/S 669 mmHg 91%

    20 November, Dienstag

    Zeit Temperatur Niederschläge Wind Luftdruck Luftfeuchtigkeit
    00:00 +21°C° 0.8 mm 1 m/S 668 mmHg 93%
    01:00 +21°C° 0.8 mm 1 m/S 668 mmHg 95%
    02:00 +21°C° 0 mm 1 m/S 668 mmHg 96%
    03:00 +21°C° 0 mm 1 m/S 668 mmHg 96%
    04:00 +20°C° 0 mm 1 m/S 668 mmHg 96%
    05:00 +21°C° 0.4 mm 1 m/S 669 mmHg 93%
    06:00 +22°C° 0.4 mm 1 m/S 670 mmHg 91%
    07:00 +23°C° 0.4 mm 1 m/S 671 mmHg 88%
    08:00 +27°C° 0.8 mm 1 m/S 671 mmHg 75%
    09:00 +28°C° 0.8 mm 0 m/S 672 mmHg 62%
    10:00 +31°C° 0.8 mm 0 m/S 672 mmHg 49%
    11:00 +33°C° 0 mm 1 m/S 671 mmHg 46%
    12:00 +33°C° 0 mm 1 m/S 671 mmHg 43%
    13:00 +33°C° 0 mm 1 m/S 670 mmHg 40%
    14:00 +32°C° 0 mm 1 m/S 669 mmHg 45%
    15:00 +31°C° 0 mm 1 m/S 669 mmHg 50%
    16:00 +29°C° 0 mm 1 m/S 669 mmHg 55%
    17:00 +28°C° 0.2 mm 1 m/S 669 mmHg 61%
    18:00 +26°C° 0.2 mm 1 m/S 669 mmHg 68%
    19:00 +25°C° 0.2 mm 1 m/S 669 mmHg 75%
    20:00 +24°C° 0.3 mm 1 m/S 669 mmHg 80%
    21:00 +23°C° 0.3 mm 2 m/S 669 mmHg 85%
    22:00 +21°C° 0.3 mm 2 m/S 669 mmHg 90%
    23:00 +20°C° 0.6 mm 2 m/S 669 mmHg 92%
    Mehr zeigen